timestamp,wind_dir_avg,wind_spd_avg,wind_spd_max_dir,wind_spd_gust,battery_voltage,lat,long
2022-12-06 00:04:00+00:00,42.0,8.87,32.0,11.35,12.33,47.59359,-54.27349
2022-12-06 00:14:00+00:00,43.0,9.49,45.0,10.08,12.25,47.59359,-54.27349
2022-12-06 00:24:00+00:00,42.0,8.93,44.0,9.71,12.25,47.59359,-54.27349
2022-12-06 00:34:00+00:00,46.0,8.65,50.0,9.55,12.25,47.59359,-54.27349
2022-12-06 00:44:00+00:00,37.0,8.48,36.0,9.12,12.25,47.59359,-54.27349
2022-12-06 00:54:00+00:00,35.0,7.82,33.0,9.2,12.25,47.59359,-54.27349
2022-12-06 01:04:00+00:00,36.0,8.32,36.0,9.06,12.25,47.59359,-54.27349
2022-12-06 01:14:00+00:00,29.0,8.35,29.0,8.89,12.25,47.59359,-54.27349
2022-12-06 01:24:00+00:00,30.0,7.63,35.0,8.43,12.25,47.59359,-54.27349
2022-12-06 01:34:00+00:00,33.0,8.43,35.0,9.07,12.25,47.59359,-54.27349
2022-12-06 01:44:00+00:00,32.0,8.43,36.0,9.34,12.25,47.59359,-54.27349
2022-12-06 01:54:00+00:00,34.0,8.42,34.0,9.08,12.25,47.59359,-54.27349
2022-12-06 02:04:00+00:00,40.0,8.37,45.0,9.47,12.25,47.59359,-54.27349
2022-12-06 02:14:00+00:00,49.0,7.36,38.0,8.76,12.17,47.59359,-54.27349
2022-12-06 02:24:00+00:00,37.0,7.97,35.0,9.1,12.17,47.59359,-54.27349
2022-12-06 02:34:00+00:00,45.0,8.23,44.0,9.75,12.17,47.59359,-54.27349
2022-12-06 02:44:00+00:00,46.0,7.74,40.0,8.9,12.17,47.59359,-54.27349
2022-12-06 02:54:00+00:00,41.0,7.95,42.0,9.61,12.17,47.59359,-54.27349
2022-12-06 03:04:00+00:00,40.0,9.18,48.0,10.65,12.17,47.59359,-54.27349
2022-12-06 03:14:01+00:00,40.0,8.57,44.0,10.78,12.17,47.59359,-54.27349
2022-12-06 03:24:01+00:00,45.0,9.17,46.0,10.51,12.17,47.59359,-54.27349
2022-12-06 03:34:01+00:00,42.0,9.21,36.0,11.43,12.17,47.59359,-54.27349
2022-12-06 03:44:01+00:00,48.0,9.09,48.0,9.68,12.17,47.59359,-54.27349
2022-12-06 03:54:01+00:00,42.0,9.43,38.0,10.61,12.17,47.59359,-54.27349
2022-12-06 04:04:01+00:00,41.0,9.37,46.0,11.17,12.17,47.59359,-54.27349
2022-12-06 04:14:01+00:00,38.0,8.88,44.0,10.73,12.17,47.59359,-54.27349
2022-12-06 04:24:01+00:00,45.0,9.26,51.0,11.44,12.17,47.59359,-54.27349
2022-12-06 04:34:01+00:00,48.0,10.11,52.0,12.01,12.17,47.59359,-54.27349
2022-12-06 04:44:01+00:00,49.0,8.24,58.0,9.76,12.17,47.59359,-54.27349
2022-12-06 04:54:01+00:00,54.0,9.1,51.0,10.3,12.17,47.59359,-54.27349
2022-12-06 05:04:01+00:00,48.0,8.16,47.0,9.49,12.17,47.59359,-54.27349
2022-12-06 05:14:01+00:00,58.0,9.26,59.0,10.43,12.17,47.59359,-54.27349
2022-12-06 05:24:01+00:00,52.0,9.07,55.0,9.96,12.17,47.59359,-54.27349
2022-12-06 05:34:01+00:00,49.0,9.01,47.0,10.44,12.17,47.59359,-54.27349
2022-12-06 05:44:01+00:00,49.0,9.25,46.0,10.26,12.17,47.59359,-54.27349
2022-12-06 05:54:01+00:00,50.0,8.59,48.0,10.13,12.17,47.59359,-54.27349
2022-12-06 06:04:01+00:00,47.0,9.39,47.0,10.45,12.17,47.59359,-54.27349
2022-12-06 06:14:00+00:00,50.0,9.4,50.0,10.35,12.17,47.59359,-54.27349
2022-12-06 06:24:00+00:00,49.0,9.5,51.0,10.72,12.17,47.59359,-54.27349
2022-12-06 06:34:00+00:00,51.0,9.4,50.0,10.65,12.17,47.59359,-54.27349
2022-12-06 06:44:00+00:00,52.0,8.93,54.0,11.36,12.17,47.59359,-54.27349
2022-12-06 06:54:00+00:00,56.0,7.84,51.0,9.86,12.17,47.59359,-54.27349
2022-12-06 07:04:00+00:00,51.0,9.13,48.0,9.96,12.17,47.59359,-54.27349
2022-12-06 07:14:01+00:00,51.0,9.15,49.0,10.0,12.17,47.59359,-54.27349
2022-12-06 07:24:01+00:00,54.0,9.25,59.0,11.52,12.17,47.59359,-54.27349
2022-12-06 07:34:01+00:00,53.0,8.92,58.0,10.65,12.17,47.59359,-54.27349
2022-12-06 07:44:01+00:00,56.0,8.53,60.0,10.48,12.17,47.59359,-54.27349
2022-12-06 07:54:01+00:00,55.0,8.76,59.0,9.96,12.17,47.59359,-54.27349
2022-12-06 08:04:01+00:00,53.0,9.09,59.0,10.29,12.17,47.59359,-54.27349
2022-12-06 08:14:00+00:00,50.0,9.81,38.0,11.63,12.17,47.59359,-54.27349
2022-12-06 08:24:00+00:00,54.0,8.81,59.0,10.67,12.17,47.59359,-54.27349
2022-12-06 08:34:00+00:00,53.0,8.89,51.0,10.83,12.17,47.59359,-54.27349
2022-12-06 08:44:00+00:00,49.0,10.44,54.0,12.45,12.17,47.59359,-54.27349
2022-12-06 08:54:00+00:00,56.0,10.1,55.0,11.93,12.17,47.59359,-54.27349
2022-12-06 09:04:00+00:00,53.0,9.16,53.0,11.72,12.17,47.59359,-54.27349
2022-12-06 09:14:00+00:00,50.0,10.7,54.0,12.27,12.09,47.59359,-54.27349
2022-12-06 09:24:00+00:00,55.0,9.71,57.0,11.58,12.09,47.59359,-54.27349
2022-12-06 09:34:00+00:00,53.0,10.1,55.0,11.87,12.09,47.59359,-54.27349
2022-12-06 09:44:00+00:00,53.0,10.0,56.0,12.0,12.09,47.59359,-54.27349
2022-12-06 09:54:00+00:00,55.0,9.44,59.0,11.29,12.09,47.59359,-54.27349
2022-12-06 10:04:00+00:00,55.0,9.43,60.0,10.75,12.09,47.59359,-54.27349
2022-12-06 10:14:01+00:00,53.0,9.37,57.0,11.58,12.17,47.59359,-54.27349
2022-12-06 10:24:01+00:00,55.0,9.02,63.0,10.99,12.17,47.59359,-54.27349
2022-12-06 10:34:01+00:00,55.0,9.25,60.0,10.96,12.17,47.59359,-54.27349
2022-12-06 10:44:01+00:00,50.0,10.81,51.0,12.45,12.17,47.59359,-54.27349
2022-12-06 10:54:01+00:00,51.0,9.99,55.0,11.55,12.17,47.59359,-54.27349
2022-12-06 11:04:01+00:00,54.0,9.3,48.0,10.5,12.17,47.59359,-54.27349
2022-12-06 11:14:00+00:00,53.0,9.03,58.0,9.91,12.17,47.59359,-54.27349
2022-12-06 11:24:00+00:00,56.0,8.77,56.0,9.82,12.17,47.59359,-54.27349
2022-12-06 11:34:00+00:00,53.0,9.36,56.0,11.15,12.17,47.59359,-54.27349
2022-12-06 11:44:00+00:00,51.0,9.64,54.0,11.24,12.17,47.59359,-54.27349
2022-12-06 11:54:00+00:00,52.0,10.45,52.0,12.67,12.17,47.59359,-54.27349
2022-12-06 12:04:00+00:00,58.0,9.47,57.0,11.96,12.17,47.59359,-54.27349
2022-12-06 12:14:00+00:00,51.0,11.23,52.0,12.44,12.17,47.59359,-54.27349
2022-12-06 12:24:00+00:00,49.0,10.12,54.0,12.35,12.17,47.59359,-54.27349
2022-12-06 12:34:00+00:00,49.0,10.59,54.0,12.2,12.17,47.59359,-54.27349
2022-12-06 12:44:00+00:00,48.0,9.74,51.0,11.54,12.17,47.59359,-54.27349
2022-12-06 12:54:00+00:00,51.0,9.52,56.0,10.98,12.17,47.59359,-54.27349
2022-12-06 13:04:00+00:00,51.0,8.9,54.0,10.51,12.17,47.59359,-54.27349
2022-12-06 13:14:00+00:00,56.0,8.88,62.0,10.94,12.73,47.59359,-54.27349
2022-12-06 13:24:00+00:00,59.0,8.19,59.0,11.03,12.73,47.59359,-54.27349
2022-12-06 13:34:00+00:00,53.0,9.07,52.0,11.14,12.73,47.59359,-54.27349
2022-12-06 13:44:00+00:00,60.0,8.93,67.0,10.85,12.73,47.59359,-54.27349
2022-12-06 13:54:00+00:00,56.0,9.19,58.0,9.89,12.73,47.59359,-54.27349
2022-12-06 14:04:00+00:00,59.0,8.65,60.0,9.83,12.73,47.59359,-54.27349
2022-12-06 14:14:00+00:00,58.0,9.64,63.0,11.05,13.13,47.59359,-54.27349
2022-12-06 14:24:00+00:00,63.0,9.0,69.0,10.86,13.13,47.59359,-54.27349
2022-12-06 14:34:00+00:00,67.0,8.25,66.0,10.55,13.13,47.59359,-54.27349
2022-12-06 14:44:00+00:00,61.0,8.99,63.0,10.75,13.13,47.59359,-54.27349
2022-12-06 14:54:00+00:00,63.0,8.63,67.0,10.66,13.13,47.59359,-54.27349
2022-12-06 15:04:00+00:00,59.0,8.15,66.0,10.42,13.13,47.59359,-54.27349
2022-12-06 15:14:00+00:00,59.0,7.7,54.0,9.64,13.13,47.59359,-54.27349
2022-12-06 15:24:00+00:00,58.0,8.09,66.0,10.59,13.13,47.59359,-54.27349
2022-12-06 15:34:00+00:00,63.0,8.01,69.0,10.43,13.13,47.59359,-54.27349
2022-12-06 15:44:00+00:00,73.0,6.63,78.0,8.76,13.13,47.59359,-54.27349
2022-12-06 15:54:00+00:00,67.0,5.7,72.0,7.65,13.13,47.59359,-54.27349
2022-12-06 16:04:00+00:00,71.0,6.7,72.0,8.24,13.13,47.59359,-54.27349
2022-12-06 16:14:01+00:00,68.0,6.96,63.0,7.75,13.05,47.59359,-54.27349
2022-12-06 16:24:01+00:00,81.0,4.62,91.0,7.21,13.05,47.59359,-54.27349
2022-12-06 16:34:01+00:00,71.0,6.54,74.0,8.2,13.05,47.59359,-54.27349
2022-12-06 16:44:01+00:00,73.0,6.28,70.0,7.55,13.05,47.59359,-54.27349
2022-12-06 16:54:01+00:00,73.0,6.92,61.0,8.1,13.05,47.59359,-54.27349
2022-12-06 17:04:01+00:00,71.0,7.01,71.0,8.31,13.05,47.59359,-54.27349
2022-12-06 17:14:00+00:00,62.0,5.55,59.0,6.4,13.37,47.59359,-54.27349
2022-12-06 17:24:00+00:00,59.0,6.55,57.0,7.8,13.37,47.59359,-54.27349
2022-12-06 17:34:00+00:00,59.0,6.81,57.0,7.69,13.37,47.59359,-54.27349
2022-12-06 17:44:00+00:00,66.0,6.55,74.0,7.94,13.37,47.59359,-54.27349
2022-12-06 17:54:00+00:00,67.0,7.42,62.0,7.81,13.37,47.59359,-54.27349
2022-12-06 18:04:00+00:00,61.0,7.31,62.0,9.19,13.37,47.59359,-54.27349
2022-12-06 18:14:01+00:00,65.0,9.46,66.0,10.71,12.97,47.59359,-54.27349
2022-12-06 18:24:01+00:00,63.0,9.02,64.0,11.0,12.97,47.59359,-54.27349
2022-12-06 18:34:01+00:00,58.0,10.29,56.0,11.99,12.97,47.59359,-54.27349
2022-12-06 18:44:01+00:00,65.0,9.38,66.0,10.97,12.97,47.59359,-54.27349
2022-12-06 18:54:01+00:00,61.0,9.82,63.0,11.38,12.97,47.59359,-54.27349
2022-12-06 19:04:01+00:00,54.0,7.29,58.0,9.25,12.97,47.59359,-54.27349
2022-12-06 19:14:00+00:00,61.0,7.91,65.0,10.62,12.57,47.59359,-54.27349
2022-12-06 19:24:00+00:00,60.0,9.48,64.0,11.15,12.57,47.59359,-54.27349
2022-12-06 19:34:00+00:00,55.0,9.67,59.0,11.76,12.57,47.59359,-54.27349
2022-12-06 19:44:00+00:00,62.0,7.68,64.0,10.34,12.57,47.59359,-54.27349
2022-12-06 19:54:00+00:00,57.0,8.7,56.0,11.27,12.57,47.59359,-54.27349
2022-12-06 20:04:00+00:00,69.0,8.89,72.0,10.6,12.57,47.59359,-54.27349
2022-12-06 20:14:00+00:00,63.0,9.4,69.0,10.85,12.49,47.59359,-54.27349
2022-12-06 20:24:00+00:00,66.0,10.25,64.0,11.18,12.49,47.59359,-54.27349
2022-12-06 20:34:00+00:00,58.0,10.58,57.0,12.16,12.49,47.59359,-54.27349
2022-12-06 20:44:00+00:00,55.0,11.59,53.0,12.45,12.49,47.59359,-54.27349
2022-12-06 20:54:00+00:00,52.0,10.2,53.0,12.48,12.49,47.59359,-54.27349
2022-12-06 21:04:00+00:00,57.0,9.5,59.0,11.81,12.49,47.59359,-54.27349
2022-12-06 21:14:00+00:00,52.0,11.22,53.0,12.34,12.41,47.59359,-54.27349
2022-12-06 21:24:00+00:00,57.0,10.69,57.0,12.11,12.41,47.59359,-54.27349
2022-12-06 21:34:00+00:00,61.0,9.28,61.0,11.16,12.41,47.59359,-54.27349
2022-12-06 21:44:00+00:00,59.0,9.69,63.0,11.22,12.41,47.59359,-54.27349
2022-12-06 21:54:00+00:00,58.0,10.95,58.0,12.04,12.41,47.59359,-54.27349
2022-12-06 22:04:00+00:00,55.0,10.8,54.0,12.0,12.41,47.59359,-54.27349
2022-12-06 22:14:00+00:00,54.0,10.34,54.0,12.03,12.41,47.59359,-54.27349
2022-12-06 22:24:00+00:00,57.0,9.53,63.0,11.63,12.41,47.59359,-54.27349
2022-12-06 22:34:00+00:00,50.0,9.63,53.0,11.34,12.41,47.59359,-54.27349
2022-12-06 22:44:00+00:00,56.0,9.5,54.0,12.11,12.41,47.59359,-54.27349
2022-12-06 22:54:00+00:00,62.0,9.68,66.0,11.11,12.41,47.59359,-54.27349
2022-12-06 23:04:00+00:00,64.0,9.6,64.0,11.16,12.41,47.59359,-54.27349
2022-12-06 23:14:00+00:00,63.0,8.7,67.0,10.41,12.41,47.59359,-54.27349
2022-12-06 23:24:00+00:00,59.0,9.73,62.0,11.59,12.41,47.59359,-54.27349
2022-12-06 23:34:00+00:00,57.0,11.01,56.0,12.05,12.41,47.59359,-54.27349
2022-12-06 23:44:00+00:00,57.0,10.63,56.0,12.32,12.41,47.59359,-54.27349
2022-12-06 23:54:00+00:00,44.0,8.92,52.0,11.32,12.41,47.59359,-54.27349
